[[{"header":{"parameterUnit":"m.s-1","parameterCategory":1,"la1":30.2991,"la2":30.254,"lo1":-89.0895,"lo2":-89.0444,"dy":0.0017,"dx":0.0017,"nx":28,"ny":28,"refTime":"2024-12-07T03:00:00:Z","depth":0,"parameterNumber":2,"parameterNumberName":"U-component_of_WINDS"},"data":[0,0,0,0,0,0,0,0,0,0,0,0,0,0,0,0,0,0,0,0,0,0,0,0,0,0,0,0,0,0,0,0,0,0,0,0,0,0,0,0,0,0,0,0,0,0,0,0,0,0,0,0,0,0,0,0,0,0,-2.6305,-2.6305,0,-2.6378,-2.6379,-2.638,-2.6371,-2.637,-2.6369,-2.6368,-2.6444,-2.6447,-2.6451,0,0,0,0,0,0,0,0,0,0,0,0,0,-2.6158,-2.6161,-2.6304,-2.6305,-2.6306,-2.6378,-2.6379,-2.638,-2.6372,-2.637,-2.6369,-2.6367,-2.6443,-2.6447,-2.6451,0,0,0,0,0,0,0,0,0,0,0,0,0,-2.6226,-2.6162,-2.6304,-2.6311,-2.6312,-2.6378,-2.6379,-2.6381,-2.6372,-2.637,-2.6368,-2.6367,-2.6442,-2.6447,-2.6451,-2.6516,0,0,-2.6466,-2.6468,0,0,0,0,0,0,0,0,-2.6222,-2.6231,-2.6309,-2.631,-2.6312,-2.6364,-2.6356,-2.6426,-2.6372,-2.6349,-2.6368,-2.6366,-2.6419,-2.6426,-2.6443,-2.652,-2.6523,-2.6466,-2.6469,-2.6471,-2.6472,0,0,0,0,0,0,0,-2.6217,-2.6228,-2.6334,-2.631,-2.6312,-2.6311,-2.6318,-2.6369,-2.6393,-2.6351,-2.6351,-2.6359,-2.642,-2.6439,-2.6445,-2.6524,-2.6466,-2.647,-2.6473,-2.6475,-2.6658,-2.666,0,0,0,0,0,0,-2.6211,-2.6224,-2.6331,-2.6336,-2.6262,-2.6315,-2.6323,-2.6349,-2.6393,-2.6398,-2.6361,-2.6359,-2.6432,-2.644,-2.6448,-2.6526,-2.6471,-2.6475,-2.6478,-2.6656,-2.6659,-2.6661,0,0,0,0,0,0,-2.6208,-2.622,-2.6328,-2.628,-2.6294,-2.6319,-2.6348,-2.6351,-2.6371,-2.64,-2.6405,-2.6376,-2.6431,-2.6441,-2.6499,-2.6529,-2.6478,-2.6482,-2.6654,-2.6657,-2.666,-2.6684,0,0,0,0,0,0,-2.6203,-2.6219,-2.6243,-2.628,-2.6296,-2.6378,-2.635,-2.6354,-2.6379,-2.6377,-2.6415,-2.642,-2.643,-2.6492,-2.6504,-2.6534,-2.6486,-2.6651,-2.6655,-2.6659,-2.6681,-2.6688,-2.6694,0,0,0,0,0,-2.6198,-2.6247,-2.6245,-2.6258,-2.6327,-2.638,-2.6389,-2.6399,-2.6381,-2.6406,-2.6425,-2.6419,-2.6524,-2.6498,-2.6511,-2.6544,-2.665,-2.6654,-2.6659,-2.6678,-2.6686,-2.6693,0,0,0,0,0,0,-2.6213,-2.6252,-2.625,-2.6312,-2.6343,-2.6378,-2.6409,-2.6407,-2.6444,-2.644,-2.6452,-2.6461,-2.652,-2.6538,-2.6508,-2.6609,-2.6585,-2.6592,-2.6595,-2.6603,-2.6609,-2.6603,-2.6489,0,0,0,0,0,-2.6223,-2.6262,-2.6295,-2.6347,-2.6363,-2.6384,-2.6407,-2.6413,-2.6445,-2.6458,-2.6481,-2.6513,-2.6553,-2.658,-2.6618,-2.6684,-2.6693,-2.6713,-2.672,-2.6725,-2.673,-2.6767,-2.6777,-2.6676,-2.6676,-2.6676,0,0,-2.6245,-2.6271,-2.6295,-2.6351,-2.6375,-2.6416,-2.6394,-2.6438,-2.6469,-2.6464,-2.652,-2.6539,-2.6576,-2.6638,-2.6667,-2.6655,-2.6761,-2.6731,-2.6734,-2.6737,-2.6773,-2.6782,-2.6791,-2.6679,-2.6679,-2.6678,0,0,-2.6305,-2.6329,-2.6375,-2.6401,-2.6438,-2.6452,-2.6463,-2.65,-2.6512,-2.6569,-2.6566,-2.6604,-2.6673,-2.6699,-2.6721,-2.6795,-2.679,-2.6807,-2.684,-2.6875,-2.6883,-2.689,-2.6916,-2.6925,-2.6813,-2.6813,-2.6813,0,-2.6327,-2.6388,-2.6399,-2.6444,-2.6468,-2.6467,-2.6514,-2.6538,-2.6587,-2.6604,-2.6591,-2.6678,-2.6703,-2.6772,-2.679,-2.6808,-2.6821,-2.6802,-2.6881,-2.6888,-2.6895,-2.692,-2.6929,-2.6815,-2.6815,-2.6815,-2.6815,0,-2.6414,-2.6456,-2.6489,-2.6536,-2.6564,-2.661,-2.6629,-2.6657,-2.6661,-2.6677,-2.6735,-2.6765,-2.681,-2.6827,-2.6831,-2.6897,-2.6889,-2.6879,-2.6853,-2.6906,-2.6929,-2.6939,-2.6818,-2.6817,-2.6816,-2.6816,0,0,-2.6482,-2.6536,-2.6548,-2.6569,-2.6612,-2.6645,-2.6692,-2.6736,-2.6759,-2.6794,-2.6833,-2.6893,-2.6884,-2.6909,-2.6917,-2.6949,-2.7004,-2.6934,-2.6935,-2.6945,-2.7079,-2.7085,-2.7095,-2.7003,-2.7005,-2.7006,-2.7075,0,-2.6546,-2.6627,-2.6639,-2.6711,-2.6751,-2.6752,-2.6792,-2.6823,-2.684,-2.6877,-2.6896,-2.6938,-2.6923,-2.6938,-2.697,-2.6991,-2.7031,-2.6986,-2.7039,-2.7041,-2.7028,-2.7108,-2.7114,-2.7177,-2.7084,-2.7086,-2.7087,0,-2.663,-2.6666,-2.6742,-2.678,-2.6797,-2.6833,-2.6875,-2.6911,-2.6946,-2.6956,-2.6986,-2.699,-2.704,-2.7014,-2.7082,-2.7052,-2.7075,-2.7089,-2.7091,-2.7095,-2.7065,-2.7112,-2.7198,-2.7207,-2.7102,-2.71,-2.7099,0,-2.6671,-2.6739,-2.6793,-2.6812,-2.6858,-2.6884,-2.6904,-2.6938,-2.6964,-2.7002,-2.7019,-2.7062,-2.7085,-2.7119,-2.7135,-2.7115,-2.7202,-2.7178,-2.7211,-2.7211,-2.7228,-2.7226,-2.7317,-2.7246,-2.7245,-2.7245,-2.7245,0,-2.6739,-2.6785,-2.6813,-2.6846,-2.6898,-2.6913,-2.6964,-2.6984,-2.7015,-2.7053,-2.7057,-2.7092,-2.7112,-2.7151,-2.7164,-2.7219,-2.7229,-2.7239,-2.7242,-2.7238,-2.7236,-2.7251,-2.7246,-2.7248,-2.7247,-2.7247,-2.7246,0,-2.6793,-2.6813,-2.6872,-2.6911,-2.6923,-2.6959,-2.6993,-2.7026,-2.7044,-2.7091,-2.7103,-2.7131,-2.7177,-2.7197,-2.7254,-2.7263,-2.7325,-2.7325,-2.7312,-2.7313,-2.7345,-2.7341,-2.7447,-2.7461,-2.7382,-2.7383,-2.7383,0,-2.6834,-2.6869,-2.6913,-2.6938,-2.696,-2.7001,-2.7028,-2.7045,-2.7073,-2.7118,-2.7145,-2.7191,-2.7229,-2.7302,-2.7328,-2.7372,-2.7372,-2.7406,-2.7378,-2.7373,-2.7371,-2.7368,-2.7372,-2.7411,-2.7411,-2.7412,-2.7413,0,-2.6905,-2.6914,-2.6952,-2.6995,-2.7027,-2.7061,-2.7095,-2.7116,-2.7139,-2.7171,-2.7218,-2.7247,-2.7305,-2.7351,-2.7397,-2.7419,-2.7419,-2.7422,-2.7431,-2.7427,-2.7417,-2.7422,-2.7324,-2.7418,-2.7418,-2.7417,-2.7417,-2.7417,-2.6953,-2.6984,-2.702,-2.7063,-2.7091,-2.7123,-2.7155,-2.7178,-2.7217,-2.7266,-2.7274,-2.7324,-2.7361,-2.7423,-2.7447,-2.7487,-2.7478,-2.7493,-2.7496,-2.7499,-2.75,-2.7413,-2.7495,-2.7495,-2.7495,-2.7495,-2.7495,0,-2.7023,-2.7046,-2.7086,-2.7133,-2.7168,-2.7167,-2.7205,-2.7233,-2.7277,-2.7311,-2.7349,-2.7403,-2.7448,-2.7479,-2.7524,-2.7551,-2.7552,-2.7562,-2.7559,-2.7564,-2.7506,-2.7492,-2.756,-2.756,-2.756,-2.756,-2.756,-2.756,-2.7063,-2.7116,-2.713,-2.7198,-2.7221,-2.727,-2.7292,-2.7322,-2.7349,-2.741,-2.7447,-2.7467,-2.75,-2.7548,-2.759,-2.7598,-2.7614,-2.7624,-2.7631,-2.7575,-2.7568,-2.7562,-2.7549,-2.7627,-2.7627,-2.7686,-2.7686,-2.7687]},{"header":{"parameterUnit":"m.s-1","parameterCategory":1,"la1":30.2991,"la2":30.254,"lo1":-89.0895,"lo2":-89.0444,"dy":0.0017,"dx":0.0017,"nx":28,"ny":28,"refTime":"2024-12-07T03:00:00:Z","depth":0,"parameterNumber":3,"parameterNumberName":"V-component_of_WINDS"},"data":[0,0,0,0,0,0,0,0,0,0,0,0,0,0,0,0,0,0,0,0,0,0,0,0,0,0,0,0,0,0,0,0,0,0,0,0,0,0,0,0,0,0,0,0,0,0,0,0,0,0,0,0,0,0,0,0,0,0,1.9854,1.9854,0,1.9862,1.9862,1.9862,1.9861,1.986,1.986,1.986,1.9869,1.987,1.987,0,0,0,0,0,0,0,0,0,0,0,0,0,1.9842,1.9842,1.9854,1.9854,1.9855,1.9862,1.9862,1.9862,1.9861,1.986,1.986,1.986,1.9869,1.987,1.987,0,0,0,0,0,0,0,0,0,0,0,0,0,1.9848,1.9842,1.9854,1.9855,1.9855,1.9862,1.9862,1.9862,1.9861,1.986,1.986,1.986,1.9869,1.987,1.987,1.9878,0,0,1.9872,1.9872,0,0,0,0,0,0,0,0,1.9848,1.9849,1.9854,1.9855,1.9855,1.986,1.9861,1.9868,1.9861,1.9858,1.986,1.986,1.9867,1.9867,1.9869,1.9879,1.9879,1.9872,1.9872,1.9873,1.9873,0,0,0,0,0,0,0,1.9847,1.9848,1.9857,1.9855,1.9855,1.9855,1.9856,1.9862,1.9864,1.9859,1.9858,1.9859,1.9867,1.9869,1.987,1.9879,1.9872,1.9873,1.9873,1.9873,1.9899,1.9899,0,0,0,0,0,0,1.9846,1.9848,1.9857,1.9858,1.9851,1.9856,1.9857,1.9859,1.9864,1.9864,1.986,1.9859,1.9868,1.9869,1.987,1.9881,1.9873,1.9873,1.9874,1.9898,1.9899,1.9899,0,0,0,0,0,0,1.9846,1.9847,1.9857,1.9853,1.9854,1.9856,1.9859,1.9859,1.9861,1.9864,1.9865,1.9861,1.9868,1.9869,1.9877,1.9882,1.9874,1.9874,1.9898,1.9898,1.9899,1.9903,0,0,0,0,0,0,1.9846,1.9847,1.9849,1.9853,1.9854,1.9863,1.9859,1.9859,1.9862,1.9862,1.9866,1.9867,1.9868,1.9876,1.9877,1.9882,1.9874,1.9897,1.9898,1.9899,1.9902,1.9904,1.9905,0,0,0,0,0,1.9845,1.985,1.9849,1.985,1.9857,1.9863,1.9864,1.9864,1.9862,1.9865,1.9868,1.9866,1.9881,1.9877,1.9878,1.9883,1.9897,1.9898,1.9899,1.9902,1.9903,1.9905,0,0,0,0,0,0,1.9847,1.985,1.985,1.9855,1.9859,1.9862,1.9866,1.9866,1.987,1.987,1.9871,1.9872,1.988,1.9883,1.9878,1.9893,1.9889,1.989,1.9891,1.9892,1.9893,1.9893,1.9875,0,0,0,0,0,1.9848,1.9851,1.9855,1.9859,1.9861,1.9863,1.9866,1.9866,1.987,1.9872,1.9875,1.9879,1.9885,1.9889,1.9894,1.9903,1.9905,1.9908,1.9909,1.9909,1.991,1.9918,1.992,1.9901,1.9901,1.9901,0,0,1.9849,1.9852,1.9854,1.986,1.9862,1.9868,1.9864,1.9869,1.9874,1.9873,1.988,1.9883,1.9888,1.9897,1.9901,1.9899,1.9916,1.991,1.9911,1.9912,1.9919,1.9921,1.9922,1.9902,1.9902,1.9902,0,0,1.9856,1.9857,1.9862,1.9866,1.987,1.9872,1.9873,1.9878,1.9879,1.9887,1.9887,1.9893,1.9902,1.9907,1.991,1.9921,1.9921,1.9923,1.9928,1.9936,1.9937,1.9938,1.9944,1.9946,1.9924,1.9924,1.9924,0,1.9858,1.9864,1.9865,1.9871,1.9874,1.9874,1.988,1.9883,1.989,1.9893,1.989,1.9904,1.9907,1.9918,1.9921,1.9923,1.9926,1.9922,1.9937,1.9938,1.9939,1.9945,1.9947,1.9924,1.9924,1.9924,1.9924,0,1.9868,1.9873,1.9876,1.9883,1.9886,1.9892,1.9895,1.9899,1.99,1.9903,1.9912,1.9917,1.9924,1.9927,1.9927,1.9939,1.9938,1.9936,1.9932,1.9941,1.9947,1.9948,1.9925,1.9924,1.9924,1.9924,0,0,1.9873,1.9881,1.9883,1.9887,1.9893,1.9897,1.9904,1.9911,1.9916,1.9921,1.9928,1.9937,1.9936,1.994,1.9942,1.9948,1.9959,1.9946,1.9946,1.9949,1.9975,1.9977,1.9979,1.9959,1.9959,1.996,1.9975,0,1.9881,1.9892,1.9894,1.9905,1.9911,1.9912,1.9919,1.9924,1.9927,1.9934,1.9938,1.9945,1.9942,1.9945,1.9952,1.9956,1.9964,1.9955,1.9967,1.9968,1.9967,1.9981,1.9983,1.9996,1.9977,1.9977,1.9977,0,1.9891,1.9896,1.9908,1.9915,1.9918,1.9923,1.9932,1.9937,1.9945,1.9947,1.9953,1.9954,1.9963,1.9959,1.9973,1.9967,1.9973,1.9976,1.9977,1.9978,1.9973,1.9984,2.0001,2.0003,1.998,1.998,1.998,0,1.9895,1.9906,1.9915,1.9918,1.9926,1.9931,1.9935,1.9942,1.9947,1.9954,1.9958,1.9967,1.9972,1.9979,1.9984,1.998,1.9998,1.9994,2.0002,2.0002,2.0006,2.0006,2.0024,2.0008,2.0008,2.0008,2.0008,0,1.9904,1.9911,1.9917,1.9922,1.9932,1.9935,1.9944,1.9948,1.9955,1.9963,1.9965,1.9972,1.9977,1.9986,1.999,2.0002,2.0004,2.0007,2.0008,2.0007,2.0007,2.0011,2.0011,2.0008,2.0008,2.0008,2.0008,0,1.991,1.9914,1.9924,1.9932,1.9935,1.9941,1.9949,1.9955,1.996,1.9969,1.9972,1.9979,1.999,1.9995,2.0008,2.0011,2.0025,2.0025,2.0023,2.0023,2.0032,2.0032,2.0054,2.0059,2.0038,2.0038,2.0039,0,1.9915,1.9921,1.993,1.9936,1.994,1.9948,1.9954,1.9958,1.9964,1.9974,1.998,1.9991,2.0,2.0017,2.0024,2.0035,2.0036,2.0043,2.0037,2.0038,2.0038,2.0038,2.004,2.0044,2.0045,2.0045,2.0045,0,1.9925,1.9927,1.9935,1.9944,1.9951,1.9958,1.9966,1.997,1.9977,1.9984,1.9995,2.0002,2.0016,2.0027,2.0039,2.0045,2.0047,2.0047,2.005,2.0049,2.0048,2.0051,2.0027,2.0046,2.0046,2.0046,2.0046,2.0046,1.9931,1.9938,1.9946,1.9955,1.9962,1.9969,1.9976,1.9982,1.9991,2.0003,2.0006,2.0018,2.0028,2.0044,2.0051,2.0062,2.006,2.0064,2.0065,2.0066,2.0067,2.0046,2.0064,2.0064,2.0064,2.0064,2.0064,0,1.9942,1.9948,1.9957,1.9968,1.9976,1.9977,1.9986,1.9993,2.0004,2.0013,2.0022,2.0036,2.0048,2.0057,2.007,2.0077,2.0079,2.008,2.008,2.0082,2.0067,2.0064,2.0079,2.0079,2.0079,2.0079,2.0079,2.0079,1.9949,1.996,1.9964,1.9979,1.9986,1.9998,2.0003,2.0011,2.0019,2.0034,2.0044,2.005,2.006,2.0074,2.0086,2.0089,2.0094,2.0096,2.0099,2.0085,2.0083,2.0081,2.0079,2.0097,2.0097,2.0114,2.0114,2.0114]}]]